SEJ22W VOMM-VCBI

Flight info

Callsign SEJ22W
Flight time 0h 58m
Altitude 32000
Route PATTY DCT TEGUT R457 TTR/N0473F310 G325 IDIBI IDIBI1A
Aircraft B738/M-SDE2E3FGHIRWXY/LB1

Departure

Time 2026-04-24 11:37
Airport Chennai International Airport (VOMM)

Arrival

Time 2026-04-24 12:36
Airport Bandaranaike International Colombo Airport (VCBI)
Time Latitude Longitude Altitude Speed Heading
2026-04-24 11:15 12.98348 80.16312 61 ft 0 kts 158°
2026-04-24 11:26 12.98357 80.16309 60 ft 2 kts 157°
2026-04-24 11:26 12.98371 80.16303 60 ft 2 kts 158°
2026-04-24 11:27 12.98385 80.16296 60 ft 2 kts 158°
2026-04-24 11:27 12.98400 80.16295 60 ft 2 kts 193°
2026-04-24 11:27 12.98414 80.16301 60 ft 2 kts 219°
2026-04-24 11:27 12.98423 80.16312 60 ft 1 kts 244°
2026-04-24 11:28 12.98425 80.16318 60 ft 1 kts 250°
2026-04-24 11:28 12.98426 80.16320 60 ft 0 kts 249°
2026-04-24 11:30 12.98414 80.16286 60 ft 11 kts 249°
2026-04-24 11:30 12.98386 80.16211 60 ft 10 kts 252°
2026-04-24 11:31 12.98362 80.16137 60 ft 14 kts 249°
2026-04-24 11:31 12.98325 80.16041 60 ft 14 kts 247°
2026-04-24 11:31 12.98291 80.15955 60 ft 12 kts 251°
2026-04-24 11:31 12.98300 80.15870 60 ft 11 kts 288°
2026-04-24 11:32 12.98324 80.15786 60 ft 15 kts 285°
2026-04-24 11:32 12.98358 80.15662 60 ft 18 kts 285°
2026-04-24 11:32 12.98381 80.15574 60 ft 4 kts 285°
2026-04-24 11:32 12.98385 80.15562 60 ft 0 kts 285°
2026-04-24 11:33 12.98385 80.15560 60 ft 0 kts 285°
2026-04-24 11:33 12.98386 80.15559 60 ft 0 kts 285°
2026-04-24 11:34 12.98387 80.15552 60 ft 4 kts 285°
2026-04-24 11:34 12.98405 80.15491 60 ft 9 kts 288°
2026-04-24 11:34 12.98438 80.15455 60 ft 6 kts 351°
2026-04-24 11:35 12.98474 80.15462 60 ft 4 kts 34°
2026-04-24 11:35 12.98490 80.15485 60 ft 3 kts 66°
2026-04-24 11:35 12.98493 80.15492 60 ft 0 kts 68°
2026-04-24 11:36 12.98499 80.15507 60 ft 9 kts 68°
2026-04-24 11:37 12.98608 80.15799 60 ft 80 kts 70°
2026-04-24 11:37 12.98886 80.16545 61 ft 143 kts 69°
2026-04-24 11:37 12.99325 80.17632 213 ft 178 kts 71°
2026-04-24 11:37 12.99729 80.18781 1033 ft 168 kts 77°
2026-04-24 11:38 12.99903 80.19973 1548 ft 176 kts 103°
2026-04-24 11:38 12.99234 80.21053 1714 ft 199 kts 147°
2026-04-24 11:38 12.97868 80.21508 2119 ft 218 kts 166°
2026-04-24 11:38 12.96377 80.22054 2411 ft 241 kts 148°
2026-04-24 11:39 12.94898 80.22963 2915 ft 255 kts 150°
2026-04-24 11:39 12.93224 80.23622 3478 ft 268 kts 171°
2026-04-24 11:39 12.91371 80.23502 4216 ft 274 kts 192°
2026-04-24 11:39 12.89587 80.22786 4905 ft 281 kts 201°
2026-04-24 11:40 12.87717 80.22256 5523 ft 285 kts 186°
2026-04-24 11:40 12.85761 80.21900 6094 ft 286 kts 188°
2026-04-24 11:40 12.83794 80.21525 6786 ft 290 kts 189°
2026-04-24 11:40 12.81756 80.21171 7103 ft 307 kts 186°
2026-04-24 11:41 12.79680 80.20856 7937 ft 305 kts 188°
2026-04-24 11:41 12.77649 80.20476 8766 ft 305 kts 190°
2026-04-24 11:41 12.75544 80.20053 9574 ft 306 kts 191°
2026-04-24 11:41 12.73459 80.19627 10162 ft 315 kts 191°
2026-04-24 11:42 12.71201 80.19158 10241 ft 342 kts 191°
2026-04-24 11:42 12.68807 80.18656 10449 ft 361 kts 192°
2026-04-24 11:42 12.66298 80.18128 10786 ft 374 kts 192°
2026-04-24 11:42 12.63756 80.17593 11390 ft 379 kts 192°
2026-04-24 11:43 12.61204 80.17056 12017 ft 382 kts 192°
2026-04-24 11:43 12.58591 80.16505 12650 ft 386 kts 192°
2026-04-24 11:43 12.55954 80.15950 13262 ft 390 kts 192°
2026-04-24 11:43 12.53275 80.15385 13901 ft 394 kts 192°
2026-04-24 11:44 12.50623 80.14827 14495 ft 398 kts 192°
2026-04-24 11:44 12.47886 80.14250 15109 ft 401 kts 192°
2026-04-24 11:44 12.45168 80.13678 15699 ft 405 kts 192°
2026-04-24 11:44 12.42390 80.13093 16289 ft 409 kts 192°
2026-04-24 11:45 12.39623 80.12508 16888 ft 411 kts 192°
2026-04-24 11:45 12.36822 80.11902 17421 ft 415 kts 192°
2026-04-24 11:45 12.33986 80.11308 17990 ft 418 kts 191°
2026-04-24 11:45 12.31127 80.10716 18540 ft 421 kts 191°
2026-04-24 11:46 12.28278 80.10120 19047 ft 425 kts 191°
2026-04-24 11:46 12.25377 80.09510 19560 ft 428 kts 191°
2026-04-24 11:46 12.22459 80.08897 20054 ft 431 kts 191°
2026-04-24 11:46 12.19511 80.08279 20544 ft 434 kts 191°
2026-04-24 11:47 12.16513 80.07649 21020 ft 438 kts 191°
2026-04-24 11:47 12.13566 80.07031 21478 ft 441 kts 191°
2026-04-24 11:47 12.10535 80.06394 21928 ft 444 kts 191°
2026-04-24 11:47 12.07522 80.05761 22360 ft 446 kts 191°
2026-04-24 11:48 12.04479 80.05122 22785 ft 449 kts 191°
2026-04-24 11:48 12.01444 80.04485 23193 ft 452 kts 191°
2026-04-24 11:48 11.98324 80.03831 23602 ft 454 kts 191°
2026-04-24 11:48 11.95247 80.03186 23996 ft 457 kts 191°
2026-04-24 11:49 11.92145 80.02535 24380 ft 459 kts 191°
2026-04-24 11:49 11.88992 80.01874 24761 ft 462 kts 190°
2026-04-24 11:49 11.85866 80.01218 25123 ft 464 kts 190°
2026-04-24 11:49 11.82681 80.00551 25479 ft 467 kts 190°
2026-04-24 11:50 11.79529 79.99890 25822 ft 469 kts 190°
2026-04-24 11:50 11.76306 79.99215 26163 ft 471 kts 190°
2026-04-24 11:50 11.73120 79.98548 26489 ft 473 kts 190°
2026-04-24 11:50 11.69914 79.97877 26807 ft 475 kts 190°
2026-04-24 11:51 11.66689 79.97201 27119 ft 477 kts 190°
2026-04-24 11:51 11.63455 79.96525 27423 ft 479 kts 190°
2026-04-24 11:51 11.60195 79.95842 27717 ft 481 kts 190°
2026-04-24 11:51 11.56894 79.95152 28002 ft 483 kts 190°
2026-04-24 11:52 11.53705 79.94485 28428 ft 480 kts 189°
2026-04-24 11:52 11.50405 79.93793 28922 ft 477 kts 189°
2026-04-24 11:52 11.47182 79.93120 29312 ft 476 kts 189°
2026-04-24 11:52 11.43933 79.92441 29737 ft 474 kts 189°
2026-04-24 11:53 11.40716 79.91768 30135 ft 473 kts 189°
2026-04-24 11:53 11.37520 79.91100 30520 ft 471 kts 189°
2026-04-24 11:53 11.34315 79.90430 30902 ft 470 kts 189°
2026-04-24 11:53 11.31127 79.89765 31277 ft 469 kts 189°
2026-04-24 11:54 11.27909 79.89093 31649 ft 467 kts 189°
2026-04-24 11:54 11.24737 79.88432 31770 ft 470 kts 189°
2026-04-24 11:54 11.18340 79.87097 31776 ft 469 kts 189°
2026-04-24 11:55 11.11962 79.85767 31777 ft 466 kts 189°
2026-04-24 11:55 11.05680 79.84457 31777 ft 467 kts 189°
2026-04-24 11:56 10.99326 79.83134 31777 ft 467 kts 189°
2026-04-24 11:56 10.93006 79.81817 31777 ft 466 kts 188°
2026-04-24 11:57 10.86726 79.80509 31777 ft 466 kts 188°
2026-04-24 11:57 10.80402 79.79193 31777 ft 466 kts 188°
2026-04-24 11:58 10.74047 79.77872 31777 ft 466 kts 188°
2026-04-24 11:58 10.67690 79.76550 31776 ft 467 kts 188°
2026-04-24 11:59 10.61298 79.75221 31777 ft 466 kts 188°
2026-04-24 11:59 10.54958 79.73904 31776 ft 466 kts 188°
2026-04-24 12:00 10.48621 79.72588 31777 ft 466 kts 188°
2026-04-24 12:00 10.42257 79.71267 31777 ft 466 kts 188°
2026-04-24 12:01 10.35924 79.69953 31777 ft 466 kts 188°
2026-04-24 12:01 10.29603 79.68642 31777 ft 466 kts 188°
2026-04-24 12:02 10.23273 79.67329 31777 ft 466 kts 188°
2026-04-24 12:02 10.16939 79.66017 31777 ft 466 kts 188°
2026-04-24 12:03 10.10619 79.64708 31777 ft 466 kts 188°
2026-04-24 12:03 10.04265 79.63393 31777 ft 466 kts 188°
2026-04-24 12:04 9.97935 79.62082 31777 ft 466 kts 188°
2026-04-24 12:04 9.91637 79.60780 31777 ft 467 kts 188°
2026-04-24 12:05 9.85375 79.59484 31777 ft 467 kts 188°
2026-04-24 12:05 9.79034 79.58174 31777 ft 466 kts 188°
2026-04-24 12:06 9.72707 79.56867 31777 ft 467 kts 188°
2026-04-24 12:06 9.66386 79.55561 31776 ft 467 kts 188°
2026-04-24 12:07 9.60034 79.54250 31777 ft 466 kts 188°
2026-04-24 12:07 9.53695 79.52941 31777 ft 467 kts 188°
2026-04-24 12:08 9.47342 79.51630 31777 ft 467 kts 188°
2026-04-24 12:08 9.41010 79.50324 31777 ft 467 kts 188°
2026-04-24 12:09 9.34679 79.49019 31777 ft 467 kts 188°
2026-04-24 12:09 9.28334 79.47711 31777 ft 466 kts 188°
2026-04-24 12:10 9.21971 79.46401 31777 ft 467 kts 188°
2026-04-24 12:11 9.12439 79.44437 31777 ft 467 kts 188°
2026-04-24 12:11 9.06103 79.43133 31777 ft 465 kts 189°
2026-04-24 12:12 8.99794 79.41834 31777 ft 462 kts 189°
2026-04-24 12:12 8.93618 79.40562 31776 ft 448 kts 189°
2026-04-24 12:13 8.87596 79.39325 31777 ft 449 kts 189°
2026-04-24 12:13 8.81462 79.38066 31777 ft 451 kts 189°
2026-04-24 12:14 8.75309 79.37521 31776 ft 446 kts 172°
2026-04-24 12:14 8.72291 79.38174 31778 ft 443 kts 160°
2026-04-24 12:14 8.69573 79.39390 31778 ft 442 kts 150°
2026-04-24 12:15 8.64405 79.42743 31776 ft 441 kts 146°
2026-04-24 12:15 8.59220 79.46074 31584 ft 438 kts 147°
2026-04-24 12:15 8.56685 79.47707 30840 ft 436 kts 147°
2026-04-24 12:16 8.54135 79.49360 30010 ft 436 kts 147°
2026-04-24 12:16 8.51593 79.51008 29144 ft 436 kts 148°
2026-04-24 12:16 8.48974 79.52521 28458 ft 431 kts 152°
2026-04-24 12:16 8.46324 79.53791 27832 ft 426 kts 158°
2026-04-24 12:17 8.43633 79.54774 27207 ft 421 kts 162°
2026-04-24 12:17 8.40882 79.55673 26568 ft 417 kts 162°
2026-04-24 12:17 8.38149 79.56580 25929 ft 413 kts 162°
2026-04-24 12:17 8.35469 79.57474 25298 ft 408 kts 162°
2026-04-24 12:18 8.32802 79.58350 24822 ft 404 kts 162°
2026-04-24 12:18 8.30152 79.59210 24541 ft 398 kts 162°
2026-04-24 12:18 8.27537 79.60056 23416 ft 408 kts 163°
2026-04-24 12:18 8.24915 79.60900 22769 ft 404 kts 163°
2026-04-24 12:19 8.22619 79.61637 22234 ft 404 kts 163°
2026-04-24 12:19 8.19770 79.62550 21548 ft 400 kts 163°
2026-04-24 12:19 8.17119 79.63398 20906 ft 395 kts 163°
2026-04-24 12:19 8.14510 79.64232 20264 ft 391 kts 163°
2026-04-24 12:20 8.11937 79.65054 19633 ft 388 kts 163°
2026-04-24 12:20 8.09388 79.65868 19004 ft 384 kts 164°
2026-04-24 12:20 8.06827 79.66685 18370 ft 381 kts 164°
2026-04-24 12:20 8.04344 79.67484 17757 ft 378 kts 162°
2026-04-24 12:21 8.01920 79.68457 17136 ft 376 kts 156°
2026-04-24 12:21 7.99666 79.69724 16520 ft 374 kts 148°
2026-04-24 12:21 7.97636 79.71319 15904 ft 373 kts 140°
2026-04-24 12:21 7.95678 79.73069 15274 ft 371 kts 140°
2026-04-24 12:22 7.93758 79.74752 14661 ft 368 kts 140°
2026-04-24 12:22 7.91848 79.76416 14048 ft 366 kts 140°
2026-04-24 12:22 7.89945 79.78088 13433 ft 364 kts 140°
2026-04-24 12:22 7.88052 79.79758 12871 ft 362 kts 140°
2026-04-24 12:23 7.86145 79.81441 12805 ft 365 kts 140°
2026-04-24 12:23 7.84219 79.83141 12775 ft 370 kts 140°
2026-04-24 12:23 7.82370 79.84774 12774 ft 371 kts 140°
2026-04-24 12:23 7.80487 79.86448 12751 ft 372 kts 140°
2026-04-24 12:24 7.78543 79.88171 11907 ft 372 kts 139°
2026-04-24 12:24 7.76760 79.89893 11941 ft 340 kts 133°
2026-04-24 12:24 7.75162 79.91595 11250 ft 332 kts 135°
2026-04-24 12:24 7.73586 79.93204 10701 ft 322 kts 136°
2026-04-24 12:25 7.71977 79.94769 9932 ft 318 kts 138°
2026-04-24 12:25 7.70383 79.96256 9130 ft 317 kts 140°
2026-04-24 12:25 7.68727 79.97694 8503 ft 308 kts 141°
2026-04-24 12:25 7.67148 79.99034 8160 ft 291 kts 141°
2026-04-24 12:26 7.65674 80.00372 8219 ft 271 kts 136°
2026-04-24 12:26 7.64361 80.01734 8252 ft 287 kts 135°
2026-04-24 12:26 7.62957 80.03215 7230 ft 302 kts 136°
2026-04-24 12:26 7.61380 80.04614 6182 ft 308 kts 144°
2026-04-24 12:27 7.59580 80.05702 5534 ft 299 kts 157°
2026-04-24 12:27 7.57630 80.06281 4986 ft 289 kts 173°
2026-04-24 12:27 7.55659 80.06229 4149 ft 291 kts 192°
2026-04-24 12:27 7.53774 80.05472 3150 ft 295 kts 210°
2026-04-24 12:28 7.52071 80.04546 3017 ft 270 kts 201°
2026-04-24 12:28 7.50343 80.03950 2757 ft 254 kts 193°
2026-04-24 12:28 7.48663 80.03604 2504 ft 239 kts 187°
2026-04-24 12:28 7.47075 80.03424 2506 ft 222 kts 183°
2026-04-24 12:29 7.45543 80.03326 2489 ft 222 kts 181°
2026-04-24 12:29 7.44012 80.03270 2490 ft 222 kts 180°
2026-04-24 12:29 7.42458 80.03229 2492 ft 223 kts 180°
2026-04-24 12:29 7.40914 80.03194 2492 ft 223 kts 180°
2026-04-24 12:30 7.39349 80.03163 2493 ft 223 kts 179°
2026-04-24 12:30 7.37810 80.03039 2482 ft 224 kts 196°
2026-04-24 12:30 7.36463 80.02290 2502 ft 225 kts 213°
2026-04-24 12:30 7.35169 80.01399 2493 ft 225 kts 212°
2026-04-24 12:31 7.33894 80.00477 2493 ft 225 kts 215°
2026-04-24 12:31 7.32656 79.99530 2493 ft 225 kts 215°
2026-04-24 12:31 7.31399 79.98566 2493 ft 225 kts 215°
2026-04-24 12:31 7.30196 79.97643 2486 ft 209 kts 215°
2026-04-24 12:32 7.29099 79.96802 2445 ft 191 kts 215°
2026-04-24 12:32 7.28070 79.96012 2215 ft 181 kts 215°
2026-04-24 12:32 7.27118 79.95282 1977 ft 164 kts 214°
2026-04-24 12:32 7.26249 79.94614 1789 ft 151 kts 214°
2026-04-24 12:33 7.25432 79.93988 1573 ft 146 kts 214°
2026-04-24 12:33 7.24643 79.93383 1320 ft 142 kts 215°
2026-04-24 12:33 7.23861 79.92767 1230 ft 143 kts 216°
2026-04-24 12:33 7.23070 79.92145 1088 ft 146 kts 216°
2026-04-24 12:34 7.22263 79.91528 782 ft 144 kts 213°
2026-04-24 12:34 7.21467 79.90935 563 ft 143 kts 217°
2026-04-24 12:34 7.20676 79.90320 404 ft 144 kts 214°
2026-04-24 12:34 7.19888 79.89713 237 ft 144 kts 215°
2026-04-24 12:35 7.19084 79.89111 53 ft 139 kts 216°
2026-04-24 12:35 7.18396 79.88596 43 ft 103 kts 217°
2026-04-24 12:35 7.17920 79.88229 41 ft 71 kts 220°
2026-04-24 12:35 7.17571 79.87960 39 ft 59 kts 213°
2026-04-24 12:36 7.17258 79.87723 39 ft 53 kts 217°
2026-04-24 12:36 7.16995 79.87521 39 ft 28 kts 218°
2026-04-24 12:36 7.16895 79.87509 39 ft 12 kts 126°
2026-04-24 12:36 7.16851 79.87573 39 ft 11 kts 124°
2026-04-24 12:37 7.16871 79.87656 39 ft 16 kts 32°